SCP
0 0 0 0 0 0 0 0 0 0 0 0 0 0 0 0 0 0 0 0 0 0 0 0 0 0 0 0 0 0 0 0 0 0 0 0 0 0 0 0 0 0 0 0
0 0 0 0 0 0 0 0 0 0 -0 0 0 0 0 0 0 0 0 0 0 0 0 0 0 0 0 0 0 0 0 0 0 0 0 0 0 0 0 0 0 0 0 0
0 0 -0 0 0 0 0 0 0 0 0 0 0 0 0 0 0 0 0 0 0 0 0 0 0 0 0 0 0 0 0 0 0 0 0 0 0 0 0 0 0 0 0 0
0 0 0 -0 0 0 0 0 0 0 0 0 0 0 0 0 0 0 0 0 0 0 0 0 0 0 0 0 0 0 0 0 0 0 0 0 0 0 0 0 0 0 0 0
0 0 0 -0 0 0 0 0 0 0 0 0 0 0 0 0 0 0 0 0 0 0 0 0 0 0 0 0 -0 0 0 0 0 0 0 0 0 0 0 0 0 0 0 0
0 0 0 0 0 0 0 0 0 0 0 0 0 0 0 0 0 0 0 0 0 0 0 0 0 0 0 0 0 0 0 0 0 0 0 0 0 0 0 0 0 0 0 0
0 0 0 0 0 0 0 0 0 0 0 0 0 0 0 0 0 0 0 0 0 0 0 0 0 0 0 0 0 0 0 0 0 0 0 0 0 0 0 0 0 0 0 0
0 0 0 0 0 0 0 0 0 0 0 0 0 0 0 0 0 0 0 0 0 0 0 0 0 0 0 0 0 0 0 0 0 0 0 0 0 0 0 0 0 0 0 0
0 0 0 0 0 0 0 0 0 0 0 0 0 0 0 0 0 0 0 0 0 0 0 0 0 0 0 0 0 0 0 0 0 0 0 0 0 0 0 0 0 0 0 0
0 0 0 0 0 0 0 0 0 0 0 0 0 0 0 0 0 0 0 0 0 0 0 0 0 0 0 0 0 0 0 0 0 0 0 0 0 0 0 0 0 0 0 0
0 0 0 0 0 0 0 0 0 0 0 0 0 0 0 0 0 0 0 0 0 0 0 0 0 0 0 0 0 0 0 0 0 0 0 0 0 0 0 0 0 0 0 0
0 0 0 0 0 0 0 0 0 0 0 0 0 0 0 0 0 0 0 0 0 0 0 0 0 0 0 0 0 0 0 0 0 0 0 0 0 0 0 0 0 0 0 0
0 0 0 0 0 0 0 0 0 0 0 0 0 0 0 0 -0 -0 -0 0 0 0 0 0 0 0 0 0 0 0 0 0 0 0 0 0 0 0 0 0 0 0 0 0
0 0 0 0 0 0 0 0 0 0 0 0 0 0 0 -0 -0 -0 -0 0 0 0 0 0 0 0 0 0 0 0 0 0 0 0 0 0 0 0 0 0 0 0 0 0
0 0 0 0 0 0 0 0 0 0 0 0 0 0 0 0 0 0 -0 -0 0 0 0 0 0 0 0 0 0 0 0 0 0 0 0 0 0 0 0 0 0 0 0 0
-0 -0 -0 -0 0 0 0 0 0 0 0 0 0 0 0 0 0 0 0 0 0 0 0 0 0 0 0 0 0 0 0 0 0 0 0 0 0 0 0 0 0 0 0 0
-0 -0 0 0 0 0 0 0 0 0 0 0 0 0 0 0 0 0 0 0 0 0 0 0 0 0 0 0 0 0 0 0 0 0 0 0 0 0 0 0 0 0 0 0
0 0 0 0 0 -0 -0 0 0 0 0 0 0 0 0 0 0 0 0 0 0 0 0 0 0 0 0 0 0 0 0 0 0 0 0 0 0 0 0 0 0 0 0 0
0 0 0 0 0 -0 -0 0 0 0 0 0 0 0 0 0 0 0 0 0 -0 0 0 0 0 0 0 0 0 0 0 0 0 0 0 0 0 0 0 0 0 0 0 0
0 0 0 0 0 0 0 0 0 0 0 0 0 0 0 0 0 0 0 0 0 0 0 0 0 0 0 0 0 0 0 0 0 0 0 0 0 0 0 0 0 0 0 0
0 0 0 0 0 0 0 0 0 0 0 0 0 0 0 0 0 0 0 0 0 0 0 0 0 0 0 0 0 0 0 0 0 0 0 0 0 0 0 0 0 0 0 0
0 0 0 0 0 0 0 0 0 0 0 0 0 0 0 0 0 0 0 0 0 0 0 0 0 0 0 0 0 0 0 0 0 0 0 0 0 0 0 0 0 0 0 0
0 0 0 0 0 0 0 0 0 0 0 0 0 0 0 0 0 0 0 0 0 0 0 0 0 0 0 0 0 0 0 0 0 0 0 0 0 0 0 0 0 0 0 0
0 0 0 0 0 0 0 0 0 0 0 0 0 0 0 0 0 0 0 0 0 0 0 0 0 0 0 0 0 0 0 0 0 0 0 0 0 0 0 0 0 0 0 0
0 0 0 0 0 0 0 0 0 0 0 0 0 0 0 0 0 0 0 0 0 0 0 0 -0 -0 -0 0 0 0 0 0 0 0 0 0 0 0 0 0 0 0 0 0
0 0 0 0 0 0 0 0 0 0 0 0 0 0 0 0 0 0 0 0 0 0 0 0 -0 -0 -0 0 0 0 0 0 0 0 0 0 0 0 0 0 0 0 0 0
Wind_Speed
2 3 3 6 7 4 4 4 4 5 3 2 6 9 8 5 5 6 6 6 5 5 4 2 2 1 1 1 1 1 0 0 1 0 0 0 0 0 0 0 1 1 1 1
3 3 5 3 3 3 3 3 4 4 1 3 6 10 8 6 6 6 6 6 6 4 2 1 1 1 1 1 1 1 1 1 1 1 1 0 0 0 0 1 0 1 1 1
5 4 3 3 2 3 4 5 5 4 3 2 3 7 6 4 4 3 4 4 5 5 4 3 2 1 1 1 1 1 1 1 1 1 1 2 2 1 1 1 1 1 1 1
3 3 1 2 3 4 6 4 4 3 1 4 1 6 7 4 4 5 4 3 4 4 4 3 3 2 2 2 1 1 1 0 0 1 1 2 1 0 1 1 1 2 1 1
3 1 2 4 5 5 5 2 3 3 3 3 2 3 9 2 5 7 5 5 5 5 4 4 3 3 2 2 1 1 1 0 1 1 1 1 1 1 1 1 1 1 2 2
3 1 2 3 2 3 1 2 2 2 2 4 5 5 9 5 7 5 5 5 4 3 3 3 2 2 1 1 1 1 1 0 0 0 1 1 1 1 1 1 1 1 2 2
3 2 1 0 1 1 2 4 2 3 2 7 2 5 11 5 4 5 5 5 3 2 2 2 2 1 1 1 1 1 1 0 1 1 1 2 2 2 2 2 2 2 2 2
1 4 2 1 3 4 3 5 6 5 5 5 2 8 8 3 2 2 3 3 2 2 2 2 2 2 2 1 1 1 1 1 1 1 2 2 2 2 2 2 2 3 3 3
3 4 1 1 0 4 4 4 3 3 0 3 6 6 7 2 1 1 2 1 2 2 2 2 2 2 2 1 1 1 1 0 1 2 2 2 2 2 2 2 2 2 2 2
4 3 3 1 0 1 2 4 3 4 3 5 6 6 6 4 4 4 3 3 3 2 1 1 1 1 1 1 0 0 0 1 1 2 2 1 2 2 2 2 2 2 2 2
1 2 2 1 5 6 3 3 4 3 4 5 5 9 6 7 6 5 5 4 3 2 1 1 1 1 0 0 0 0 0 1 1 2 2 2 2 1 1 2 2 2 2 2
1 2 3 5 3 2 4 6 6 5 5 4 4 10 3 3 3 3 3 3 1 1 1 1 1 0 0 0 1 1 1 1 2 2 2 2 1 1 2 2 2 2 2 2
2 3 2 5 2 1 2 3 4 3 2 4 6 10 2 1 1 2 2 2 2 1 1 1 0 0 0 1 1 1 1 2 2 2 1 1 2 2 2 2 2 2 2 2
3 4 6 8 6 3 5 5 4 4 5 7 11 12 8 6 5 4 3 3 3 2 2 1 1 1 1 1 1 1 2 2 2 2 2 2 2 2 3 3 2 2 2 2
3 4 5 8 7 5 8 9 8 11 10 10 11 12 13 8 7 5 3 3 3 3 3 3 2 2 2 2 2 2 2 2 2 2 2 2 3 2 2 2 2 2 2 2
2 3 2 6 6 6 10 12 13 13 11 13 13 16 10 6 3 3 4 4 4 4 4 3 2 2 2 2 2 2 2 2 2 2 2 2 2 2 2 3 3 2 2 2
3 4 2 6 5 5 10 12 13 10 9 9 14 13 4 4 5 6 5 5 5 5 4 3 3 3 3 3 2 3 2 2 2 2 3 2 2 2 3 3 3 3 3 2
6 4 2 2 2 10 9 3 7 9 9 9 8 7 5 6 4 3 3 3 4 4 4 3 3 3 2 2 2 2 1 1 2 2 2 2 2 3 3 3 3 3 2 3
6 6 3 3 5 11 9 4 4 6 8 6 8 7 4 2 2 2 1 1 3 2 2 2 2 2 2 2 2 1 1 1 1 2 3 3 3 3 3 3 4 3 3 3
2 4 4 4 5 9 7 1 1 1 7 4 5 6 4 2 2 4 1 1 1 2 1 1 1 2 1 2 1 0 1 1 3 4 4 3 3 3 4 4 4 3 3 3
3 3 5 6 8 12 6 2 1 4 7 1 3 4 4 5 4 2 0 1 1 1 1 1 1 1 2 2 0 1 1 3 4 4 4 3 3 4 4 4 3 3 3 2
9 7 7 5 7 13 3 3 6 6 2 1 2 2 2 2 2 1 1 1 1 1 1 1 1 2 2 2 1 1 3 3 3 3 3 3 3 3 3 3 3 2 2 2
8 9 7 11 10 4 4 5 4 1 2 3 2 2 2 2 3 2 2 1 1 1 1 1 1 2 2 2 1 2 4 3 3 3 3 3 3 3 3 3 2 1 1 1
5 3 5 7 10 7 6 5 4 3 4 3 2 2 2 3 3 3 3 2 2 2 1 1 1 2 3 2 2 3 3 2 2 3 3 3 3 3 3 2 2 2 2 2
6 5 5 9 8 5 6 6 5 3 2 1 1 2 2 2 3 3 3 3 2 2 1 1 2 3 4 3 3 3 3 2 2 3 3 3 3 3 3 3 2 2 2 3
6 8 8 9 7 6 6 5 5 4 4 4 3 3 3 3 4 3 3 2 2 2 2 2 2 3 4 3 4 3 3 2 2 2 3 2 2 2 2 3 3 4 4 5
Wind_Direction
102 99 189 207 202 203 181 191 231 250 242 230 241 255 263 251 235 239 240 239 239 244 249 231 210 190 142 114 137 139 112 101 93 94 140 129 288 288 326 316 351 339 340 351
82 227 229 212 204 213 206 223 254 280 263 238 257 264 261 242 228 226 230 232 233 241 261 246 215 167 157 164 174 174 200 171 164 190 198 204 235 264 321 346 339 340 336 313
181 225 210 186 194 211 232 218 231 250 319 296 293 289 259 247 229 234 233 226 222 212 215 218 200 191 164 185 208 205 225 212 180 125 68 43 41 29 25 353 323 325 316 296
222 255 195 179 210 199 242 227 218 226 245 276 189 283 275 246 255 246 243 234 227 221 215 210 199 196 189 206 208 199 202 40 110 127 122 119 128 231 254 272 287 301 306 301
230 216 194 214 222 195 226 227 214 213 201 269 237 233 278 258 252 249 236 229 232 222 208 204 201 202 202 195 186 184 143 68 52 130 161 168 226 280 316 320 296 299 305 302
248 252 210 221 226 196 173 58 48 60 94 256 224 197 270 234 227 238 227 229 230 219 205 200 204 183 180 161 151 136 120 40 9 157 183 202 237 282 308 290 260 279 297 295
307 275 269 134 123 73 103 100 36 352 317 251 214 213 249 244 229 214 210 215 218 207 196 200 201 188 198 191 179 165 157 224 267 231 234 236 246 241 240 253 241 259 274 282
220 273 243 221 181 180 186 157 166 202 230 272 249 233 250 249 243 211 195 196 203 215 210 214 217 213 224 223 200 184 187 249 269 248 253 245 242 243 252 261 257 245 251 260
189 250 301 252 240 159 169 198 182 151 214 269 258 271 288 225 266 216 195 197 221 231 230 229 232 217 218 224 222 193 187 285 288 275 267 252 242 253 263 272 273 264 276 279
159 247 263 260 91 235 169 153 126 154 181 249 270 255 241 226 229 228 222 228 237 231 238 241 242 227 213 208 236 134 162 234 282 295 276 280 264 266 276 272 277 279 279 283
133 190 283 260 202 197 171 178 172 177 187 194 256 263 225 207 210 214 221 220 214 219 242 256 272 258 213 111 52 44 324 320 311 302 291 293 285 283 284 273 272 279 280 277
133 144 257 257 250 223 199 196 171 183 229 214 237 265 250 216 218 203 220 237 242 229 235 259 260 17 76 336 323 311 312 311 305 294 285 282 293 297 286 284 287 291 280 277
142 132 354 333 317 326 246 221 187 170 172 205 221 260 297 341 287 255 236 244 243 242 271 314 341 354 284 285 282 291 309 306 310 309 291 290 296 292 286 286 290 292 282 284
131 172 191 216 235 206 247 252 226 192 211 228 232 255 277 274 269 270 256 242 226 224 225 229 245 264 272 271 270 286 303 302 310 307 289 280 283 280 282 286 287 283 278 267
128 211 234 254 264 250 249 250 236 228 224 227 245 247 256 248 245 244 240 237 237 244 236 226 226 251 273 290 299 294 297 305 312 299 290 284 294 293 295 296 290 285 283 273
137 205 246 272 266 263 265 252 240 241 238 244 258 264 258 255 237 246 239 229 241 245 243 240 239 247 257 268 283 291 288 298 304 291 287 296 306 305 300 295 290 286 283 283
175 168 208 265 295 318 265 235 219 220 217 214 235 250 244 247 238 230 226 220 234 249 252 246 245 248 253 255 260 265 271 287 287 289 297 300 302 300 301 300 295 281 275 276
171 169 197 264 352 246 244 206 204 221 235 227 245 262 246 243 250 247 230 216 243 260 262 259 259 261 268 264 259 263 273 264 268 282 289 292 293 292 298 293 284 283 275 265
189 177 185 193 242 271 285 257 193 211 256 227 234 259 280 303 328 288 280 237 247 256 270 273 268 265 269 268 266 269 312 298 281 285 290 292 287 282 283 281 280 279 271 265
152 168 175 191 223 247 257 262 245 155 271 241 215 238 241 151 259 268 291 325 299 318 322 308 314 304 283 291 294 274 296 294 283 283 284 285 285 278 271 272 278 276 266 262
162 185 202 215 241 261 263 279 139 206 256 237 213 223 198 203 232 256 287 315 296 301 307 319 324 311 297 307 335 285 295 286 286 295 294 290 286 282 276 274 274 271 267 266
183 184 200 192 227 254 229 154 200 231 291 270 253 240 216 233 264 269 271 270 266 295 318 330 335 320 321 330 328 292 294 300 309 303 295 292 293 289 287 282 281 280 261 265
205 199 197 204 226 259 192 216 249 267 257 264 252 251 218 232 249 259 261 255 266 265 292 318 319 312 324 333 322 289 300 315 311 301 296 296 299 296 294 285 277 272 253 251
234 219 218 250 260 255 247 253 262 252 246 256 252 245 218 226 240 254 254 261 257 252 264 290 299 297 305 316 317 292 302 314 298 292 296 301 300 302 305 298 279 250 237 241
221 199 227 254 267 282 260 235 233 235 235 241 258 246 240 226 247 251 254 260 259 273 283 278 277 284 292 307 307 306 312 307 292 290 293 301 300 295 300 300 293 279 258 245
204 199 208 239 236 227 250 223 202 217 244 248 247 261 267 243 244 247 250 253 261 275 288 287 281 282 289 298 299 306 307 292 276 285 293 295 297 297 294 300 310 315 311 312